EHI
0 1 1 1 0 0 0 0 1 1 2 1 0 0 0 0 0 0 0 0 0 0 0 0 0 0 0 0 0 0 0 0 0 0 0 0 0 0 0 0 0 0 0
0 0 0 0 0 0 0 1 2 2 2 2 0 0 0 0 0 0 0 0 0 0 0 0 0 0 0 0 0 0 0 0 0 0 0 0 0 0 0 0 0 0 0
0 0 0 0 0 0 0 1 1 1 1 1 0 0 0 0 0 0 0 0 0 0 0 0 0 0 0 0 0 0 0 0 0 0 0 0 0 0 0 0 0 0 0
0 0 0 0 0 0 0 0 0 0 0 0 0 0 0 1 0 0 0 0 0 0 0 0 0 0 0 0 0 0 0 0 0 0 0 0 0 0 0 0 0 0 0
0 0 0 0 0 0 0 0 0 0 0 1 1 0 0 0 0 0 0 0 0 0 0 0 0 0 0 0 0 0 0 0 0 0 0 0 0 0 0 0 0 0 0
0 0 0 0 0 0 0 0 0 0 0 1 1 0 1 1 0 0 0 0 0 0 0 0 0 0 0 0 0 0 0 0 0 0 0 0 0 0 0 0 0 0 0
0 0 0 0 0 0 0 0 0 0 0 0 0 0 1 1 0 0 0 0 0 0 0 0 0 0 0 0 0 0 0 0 0 0 0 0 0 0 0 0 0 0 0
0 0 0 0 0 0 0 0 0 0 0 0 0 0 1 1 0 0 0 0 0 0 0 0 0 0 0 0 0 0 0 0 0 0 0 0 0 0 0 0 0 0 0
0 0 0 0 0 0 0 0 0 0 0 0 0 0 0 0 0 0 0 0 0 0 0 0 0 0 0 0 0 0 0 0 0 0 0 0 0 0 0 0 0 0 0
0 0 0 0 0 0 0 0 0 0 0 0 0 0 0 0 0 0 0 0 0 0 0 0 0 0 0 0 0 0 0 0 0 0 0 0 0 0 0 0 0 0 0
0 0 0 0 0 0 0 0 0 0 0 0 0 0 0 0 0 0 0 0 0 0 0 0 0 0 0 0 0 0 0 0 0 0 0 0 0 0 0 0 0 0 0
0 0 0 0 0 0 0 0 0 0 0 0 0 0 0 0 0 0 0 0 0 0 0 0 0 0 0 0 0 0 0 0 0 0 0 0 0 0 0 0 0 0 0
0 0 0 0 0 0 0 0 0 0 0 0 0 0 0 0 0 0 0 0 0 0 0 0 0 0 0 0 0 0 0 0 0 0 0 0 0 0 0 0 0 0 0
0 0 0 0 0 0 0 0 0 0 0 0 0 0 0 0 0 0 0 0 0 0 0 0 0 0 0 0 0 0 0 0 0 0 0 0 0 0 0 0 0 0 0
0 0 0 0 0 0 0 0 0 0 0 0 0 0 0 0 0 0 0 0 0 0 0 0 0 0 0 0 0 0 0 0 0 0 0 0 0 0 0 0 0 0 0
0 0 0 0 0 0 0 0 0 0 0 0 0 0 0 0 0 0 0 0 0 0 0 0 0 0 0 0 0 0 0 0 0 0 0 0 0 0 0 0 0 0 0
0 0 0 0 0 0 0 0 0 0 0 0 0 0 0 0 0 0 0 0 0 0 0 0 0 0 0 0 0 0 0 0 0 0 0 0 0 0 0 0 0 0 0
0 0 0 0 0 0 0 0 0 0 0 0 0 0 0 0 0 0 0 0 0 0 0 0 0 0 0 0 0 0 0 0 0 0 0 0 0 0 0 0 0 0 0
0 0 0 0 0 0 0 0 0 0 0 0 0 0 0 0 0 0 0 0 0 0 0 0 0 0 0 0 0 0 0 0 0 0 0 0 0 0 0 0 0 0 0
0 0 0 0 0 0 0 0 0 0 0 0 0 0 0 0 0 0 0 0 0 0 0 0 0 0 0 0 0 0 0 0 0 0 0 0 0 0 0 0 0 0 0
0 0 0 0 0 0 0 0 0 0 0 0 0 0 0 0 0 0 0 0 0 0 0 0 0 0 0 0 0 0 0 0 0 0 0 0 0 0 0 0 0 0 0
0 0 0 0 0 0 0 0 0 0 0 0 0 0 0 0 0 0 0 0 0 0 0 0 0 0 0 0 0 0 0 0 0 0 0 0 0 0 0 0 0 0 0
0 0 0 0 0 0 0 0 0 0 0 0 0 0 0 0 0 0 0 0 0 0 0 0 0 0 0 0 0 0 0 0 0 0 0 0 0 0 0 0 0 0 0
0 0 0 0 0 0 0 0 0 0 0 0 0 0 0 0 0 0 0 0 0 0 0 0 0 0 0 0 0 0 0 0 0 0 0 0 0 0 0 0 0 0 0
0 0 0 0 0 0 0 0 0 0 0 0 0 0 0 0 0 0 0 0 0 0 0 0 0 0 0 0 0 0 0 0 0 0 0 0 0 0 0 0 0 0 0
0 0 0 0 0 0 0 0 0 0 0 0 0 0 0 0 0 0 0 0 0 0 0 0 0 0 0 0 0 0 0 0 0 0 0 0 0 0 0 0 0 0 0
Wind_Speed
2 3 5 5 6 7 9 11 11 10 8 6 5 5 5 5 4 5 6 7 6 7 6 5 4 4 4 4 4 3 2 1 1 0 2 3 2 1 2 2 2 2 2
3 3 3 4 6 8 10 10 10 9 9 8 6 4 4 3 4 3 4 5 6 6 6 6 5 5 4 4 3 3 2 1 1 1 1 3 4 2 2 2 2 3 3
6 4 3 3 5 7 9 9 10 9 9 8 5 4 3 2 3 4 4 4 5 6 5 5 4 4 4 3 3 3 3 2 1 1 2 1 3 3 2 2 3 3 3
4 4 3 4 4 5 6 7 8 8 8 8 7 7 6 6 6 4 3 3 4 4 5 5 5 4 4 4 3 3 2 3 2 1 1 2 2 2 3 2 1 3 3
5 5 4 4 3 3 3 4 5 5 6 7 8 8 7 5 3 3 4 4 3 3 4 4 4 4 3 3 3 3 2 2 2 2 1 1 1 3 3 4 2 1 1
4 4 2 2 2 2 2 3 4 5 5 7 7 8 8 6 6 6 5 4 3 2 3 4 4 3 3 3 3 2 2 1 1 1 2 2 2 2 3 4 3 2 1
4 3 2 2 2 2 3 3 4 4 4 5 5 6 6 7 7 7 7 6 4 3 3 4 4 3 3 3 3 3 2 1 1 2 1 2 2 1 2 3 3 2 1
2 2 2 2 2 2 2 2 3 3 3 4 4 4 5 4 4 5 5 5 4 4 5 5 5 4 4 4 4 3 2 1 1 1 1 1 1 1 2 2 2 3 2
1 1 1 1 1 1 1 1 2 2 2 3 3 3 3 4 4 4 4 4 4 5 6 6 6 5 5 4 4 2 1 1 1 1 1 1 1 1 1 1 2 2 3
3 2 2 2 2 2 2 2 1 1 1 2 2 2 3 4 4 5 5 5 5 6 7 6 6 5 5 4 4 3 1 1 1 1 1 1 1 0 0 1 1 2 3
4 3 3 3 3 3 2 2 2 2 2 2 3 3 3 4 5 5 6 6 6 6 7 6 6 5 4 4 4 2 2 1 1 1 1 1 1 1 0 0 1 1 2
4 4 4 4 4 3 3 2 1 1 1 2 3 3 4 4 5 5 6 6 7 6 6 6 6 5 4 4 3 2 2 1 1 1 1 1 1 1 0 0 1 1 1
6 6 6 5 4 3 3 2 1 0 1 2 3 4 4 5 5 5 6 6 6 6 6 6 5 5 4 4 3 3 2 2 1 1 1 1 2 1 1 1 1 1 1
6 6 5 5 4 4 3 2 1 0 1 2 3 4 4 5 5 5 5 5 6 6 6 5 5 5 4 3 3 3 2 2 1 1 1 1 2 2 1 1 1 1 1
6 6 5 5 5 5 4 3 2 1 1 3 3 4 4 5 5 5 5 5 5 5 5 5 5 4 3 3 3 3 3 2 2 1 1 1 1 2 2 1 1 1 1
5 6 6 6 6 5 5 4 3 2 2 3 4 4 4 5 5 6 6 5 5 5 5 5 5 4 3 4 6 4 3 3 3 2 1 1 1 1 2 2 1 1 1
5 5 6 5 5 5 5 5 4 2 2 3 3 4 5 6 5 6 6 6 5 5 5 4 4 4 3 5 5 5 4 3 2 2 2 1 1 3 3 4 5 5 4
5 5 6 6 6 5 5 5 3 2 3 3 3 4 5 6 5 6 6 5 4 5 4 4 4 4 4 5 5 5 4 3 2 2 3 3 2 2 3 2 2 2 3
4 4 5 5 6 6 5 4 3 2 2 3 4 4 5 6 6 7 6 5 4 4 4 4 5 5 4 6 6 6 3 2 2 2 3 3 3 5 5 4 2 1 2
4 4 5 4 5 6 5 4 3 2 3 4 4 4 5 6 7 7 6 4 4 5 5 4 5 5 5 7 8 8 3 3 2 2 3 6 6 7 6 4 4 3 2
4 5 5 5 5 6 5 4 3 4 4 3 2 3 4 5 6 5 5 5 5 5 5 5 4 5 6 7 10 10 4 4 4 3 3 3 8 8 8 7 5 5 4
5 5 5 5 5 5 4 4 4 4 3 2 2 3 4 4 4 5 5 5 6 6 5 5 4 4 5 7 9 12 10 9 5 4 4 4 9 9 9 6 7 8 5
5 4 5 6 5 4 4 5 5 4 3 2 2 2 3 3 4 5 6 5 6 5 5 5 5 4 4 6 13 13 13 13 7 5 8 9 10 9 7 8 9 6 3
5 5 5 5 6 5 4 4 5 4 2 2 2 2 3 3 4 4 5 6 6 6 6 6 6 5 4 5 5 5 6 10 8 6 8 11 10 8 7 6 5 3 4
5 4 5 6 6 6 5 5 4 4 3 3 3 3 3 4 4 5 6 7 7 7 7 6 6 6 6 8 12 8 6 5 5 4 3 3 3 3 3 3 3 3 3
5 5 5 6 6 6 6 5 4 4 4 4 3 3 3 3 3 4 4 9 9 12 13 11 9 7 10 10 12 14 15 14 13 8 4 5 6 6 6 6 5 5 5
Wind_Direction
225 203 202 199 196 196 197 197 194 185 171 173 180 184 197 190 192 196 195 191 188 184 183 184 178 173 177 183 177 170 187 215 186 299 311 307 304 320 326 339 353 0 4
239 225 209 191 190 195 199 199 197 188 179 186 187 182 174 184 191 194 196 189 185 182 185 183 180 175 172 173 174 168 164 189 151 154 328 327 336 349 12 23 28 21 27
233 233 220 207 198 196 195 196 195 192 193 191 172 150 140 136 176 193 195 191 182 182 178 177 171 169 170 177 177 169 170 188 184 174 179 224 270 306 327 26 30 24 31
231 236 221 216 213 207 194 192 190 190 192 186 181 176 187 199 202 192 182 166 173 174 169 165 164 166 166 165 164 158 161 166 195 207 216 219 213 254 307 325 11 31 35
228 235 233 220 216 210 197 189 179 182 185 184 186 188 198 203 181 158 161 163 161 162 159 158 155 155 155 151 144 144 152 168 187 195 193 219 230 223 239 277 297 341 25
234 236 235 200 204 186 178 172 170 181 178 182 185 192 198 189 176 178 177 171 153 139 141 133 134 137 137 137 136 132 141 153 188 204 199 204 214 217 226 253 261 261 249
220 229 224 203 203 187 177 174 175 179 173 175 186 191 193 188 190 187 180 169 163 158 149 131 127 122 120 119 121 120 126 141 180 207 218 223 230 220 223 250 267 261 239
202 206 199 183 193 171 153 162 167 169 165 172 179 178 179 180 184 179 168 169 164 152 141 132 123 119 116 112 106 105 111 133 167 204 210 223 236 228 223 233 255 273 249
135 122 99 111 115 124 134 153 152 141 145 153 149 154 159 161 159 149 144 140 136 134 134 132 125 121 115 112 112 110 115 127 162 189 209 213 217 226 239 242 232 247 262
62 54 54 58 53 68 76 83 107 126 124 127 135 136 139 139 139 138 140 138 136 133 133 127 123 120 114 114 111 113 128 147 168 174 189 195 183 190 245 251 251 243 252
52 39 38 43 51 51 57 66 78 96 113 126 126 127 126 127 129 133 135 133 129 132 132 130 127 122 117 112 111 120 130 143 151 146 172 173 150 160 244 276 261 257 251
51 46 44 42 40 40 40 45 62 102 137 137 130 131 128 125 125 127 129 129 128 128 128 128 124 124 120 116 120 126 123 140 164 175 166 178 154 160 204 252 260 263 265
39 34 32 29 21 15 13 18 29 119 140 138 137 137 138 137 136 135 132 130 129 126 124 124 125 125 125 123 127 135 133 132 148 179 192 191 171 189 203 224 256 272 276
33 27 19 11 3 356 350 347 336 177 157 152 156 163 164 156 147 139 136 136 134 132 132 129 131 132 133 133 134 132 128 124 124 144 166 172 182 197 199 210 254 271 267
24 19 7 354 350 347 341 330 314 282 182 172 179 185 166 149 142 141 140 138 136 136 135 131 130 131 135 148 150 147 148 152 148 137 132 159 175 193 187 180 208 202 198
7 360 354 348 340 331 320 311 293 269 212 197 198 178 159 155 156 153 148 142 137 136 136 142 146 151 161 173 172 162 159 166 170 174 157 116 95 100 99 94 108 150 176
349 346 340 330 320 314 304 294 282 264 221 210 197 179 169 168 168 159 153 156 155 150 150 156 159 167 186 193 190 179 161 168 179 186 182 171 134 99 84 73 56 41 38
341 335 330 325 321 315 310 298 284 253 226 215 202 187 178 175 167 164 169 166 157 161 165 170 171 174 203 209 203 186 151 159 181 194 191 184 172 167 151 127 86 47 24
323 317 315 311 315 318 315 309 293 263 235 228 216 199 187 179 174 180 181 172 165 170 172 173 177 184 207 214 205 173 146 167 194 202 198 194 196 211 187 156 148 105 7
326 323 322 322 325 324 323 314 296 271 253 245 230 205 191 188 190 190 181 173 173 179 174 180 185 189 202 216 211 186 160 179 199 209 217 219 213 220 204 169 172 191 209
324 328 331 330 325 325 330 322 309 283 275 262 226 204 198 197 194 184 175 170 171 171 179 188 196 199 208 220 222 209 178 187 195 206 211 223 229 226 219 192 188 209 191
330 331 330 326 326 335 341 329 315 303 294 260 229 215 204 196 185 178 177 174 173 179 189 197 210 212 215 217 226 227 217 202 195 205 204 217 230 231 228 212 204 216 188
321 322 317 317 325 337 341 324 314 312 307 286 255 235 211 200 187 183 181 180 185 192 197 203 215 216 207 219 226 229 230 223 206 204 213 220 228 230 232 228 218 208 168
315 319 319 318 320 328 329 317 313 310 301 282 265 239 218 212 200 195 190 192 196 201 204 208 216 215 209 209 213 220 230 232 222 207 219 225 228 220 216 227 227 185 175
315 317 315 310 310 317 319 320 320 316 304 289 271 250 232 223 216 213 210 208 211 208 205 209 206 207 220 220 211 201 208 203 200 172 169 180 188 201 199 199 201 190 190
310 311 312 311 309 312 313 317 319 312 298 290 279 263 249 239 230 228 233 227 225 229 227 221 213 221 228 230 222 219 220 218 211 195 187 199 205 210 210 209 208 203 203